Regional Weather Roundup
Issued by NWS

Home | Current Version | Previous Version | Text Only | Print | Product List | Glossary On
Versions: 1 2 3 4 5 6 7 8 9 10 11 12 13 14 15 16 17 18 19 20 21 22 23 24 25 26 27 28 29 30 31 32 33 34 35 36 37 38 39 40 41 42 43 44 45 46 47 48 49 50
000
ASUS44 KFWD 040815
RWRTX
NORTH TEXAS HOURLY WEATHER ROUNDUP
NATIONAL WEATHER SERVICE FORT WORTH TX
300 AM CDT SAT JUL 04 2015

NOTE: "FAIR" INDICATES FEW OR NO CLOUDS BELOW 12,000 FEET WITH NO
SIGNIFICANT WEATHER AND/OR OBSTRUCTIONS TO VISIBILITY.

TXZ118-119-040900-
DALLAS/FORT WORTH METROPLEX

CITY           SKY/WX    TMP DP  RH WIND       PRES   REMARKS
DFW AIRPORT    PTCLDY    82  71  69 SW14      29.93S
DALLAS LOVE    MOCLDY    83  71  67 SW10      29.94R
FTW MEACHAM    CLEAR     80  71  74 S9        29.94R
DAL-EXECUTIVE  PTCLDY    80  71  74 VRB6      29.94S
FTW-ALLIANCE   PTCLDY    79  71  76 S9        29.93F
FTW-NAS-JRB    CLEAR     79  72  79 S9        29.95R
FTW-SPINKS     CLEAR     79  71  76 S8        29.96S HAZE
ARLINGTON      PTCLDY    81  70  69 S8        29.95R
GRAND PRAIRIE  CLEAR     80  73  79 S8G16     29.96R
ADDISON        PTCLDY    82  74  76 SW8       29.96S
MESQUITE       PTCLDY    79  73  81 S9        29.94S
LANCASTER      PTCLDY    78  71  77 SW8       29.95S
$$

TXZ091>094-102>105-117-120-121-131>134-040900-
NORTH CENTRAL TEXAS

CITY           SKY/WX    TMP DP  RH WIND       PRES   REMARKS
SHRMAN/DENISON CLEAR     77  72  84 SW6       29.95R
GAINESVILLE    PTCLDY    74  69  84 S3        29.96S
BRIDGEPORT     CLEAR     78  69  74 SW8       29.95S
DECATUR        CLEAR     77  67  71 CALM      29.95S
DENTON         CLEAR     76  70  82 S5        29.93S
MCKINNEY       CLEAR     79  72  79 SW7       29.93F
GREENVILLE     CLEAR     77  70  78 SW8       29.94S
ROCKWALL       PTCLDY    79  73  81 SW8       29.93S
TERRELL        MOCLDY    79  73  82 SW9       29.95S
WAXAHACHIE     PTCLDY    78  73  83 S9        29.97R
CLEBURNE       CLEAR     77  75  94 S7        29.98R
GRANBURY         N/A     80  70  71 S8        29.96S
$$

TXZ083>090-098>101-113>116-127>130-139>142-154-155-040900-
WESTERN NORTH TEXAS

CITY           SKY/WX    TMP DP  RH WIND       PRES   REMARKS
WICHITA FALLS  MOCLDY    76  70  82 CALM      29.93S
WF-KICKAPOO    MOCLDY    77  70  79 CALM      29.95S
VERNON         MOCLDY    74  63  69 CALM      29.96S
ABILENE        PTCLDY    77  65  66 S12       30.00R
ABILENE-DYESS  PTCLDY    76  65  69 SW8       29.98S
BRECKENRIDGE   PTCLDY    78  65  64 SW8       29.96S
GRAHAM         MOCLDY    77  68  74 S3        29.94S
MINERAL WELLS  PTCLDY    74  69  85 S5        29.94S
STEPHENVILLE   CLEAR     75  68  79 S3        30.00F
COMANCHE       PTCLDY    76  69  79 S9        29.99R
BROWNWOOD      PTCLDY    73  66  78 CALM      29.99S
COLEMAN        PTCLDY    74  68  79 S7        30.00S
BRADY          CLEAR     73  70  88 N3        30.01S
$$

TXZ143>147-156>162-174-175-040900-
CENTRAL TEXAS

CITY           SKY/WX    TMP DP  RH WIND       PRES   REMARKS
WACO           CLEAR     77  72  84 S9        29.96S
WACO-MCGREGOR  CLEAR     75  70  83 S8        29.98S
HILLSBORO      CLEAR     77  71  82 S10       29.96F
CORSICANA      PTCLDY    79  73  82 S8        29.97S
MEXIA          MOCLDY    76  73  89 SE12G18   29.97S
HEARNE         PTCLDY    75  74  97 SE5       29.98F
CAMERON        PTCLDY    75  73  93 S5        29.97F
TEMPLE         CLEAR     75  70  83 S8        29.98R
KILLEEN        CLEAR     74  70  88 S6        29.99R
KILLEEN-SKYLRK CLEAR     75  66  73 S8        29.98S
FORT HOOD      CLEAR     75  71  85 S7        29.98R
GATESVILLE     CLEAR     77  70  78 S8        30.00S
HAMILTON       PTCLDY    75  70  82 MISG      29.99S
$$

TXZ095>097-106>112-122>126-135>138-148>153-164>167-040900-
EAST TEXAS

CITY           SKY/WX    TMP DP  RH WIND       PRES   REMARKS
PARIS          MOCLDY    75  70  83 SW8       29.93S
SULPHUR SPRNGS PTCLDY    77  73  86 SW8       29.96S
MOUNT PLEASANT CLOUDY    77  74  88 SW6       29.95S
GILMER         MOCLDY    77  72  85 S6        29.95S
MINEOLA        PTCLDY    79  73  83 S6        29.96R
TYLER          PTCLDY    80  73  79 S13       29.95S
LONGVIEW       PTCLDY    80  73  79 SW12      29.94S
MARSHALL       PTCLDY    76  73  91 S5        29.96F
ATHENS         PTCLDY    77  72  83 S5        29.94F
PALESTINE      MOCLDY    77  74  88 S5        29.98S
JACKSONVILLE   MOCLDY    76  73  91 S6        30.00S
HENDERSON      PTCLDY    76  73  92 S5        29.96F
CENTER         FAIR      76  74  91 S7        29.96F
NACOGDOCHES    PTCLDY   N/A N/A N/A SW7       29.97F
LUFKIN         MOCLDY    78  74  87 SE5       29.97F
$$

SUPPLEMENTAL OBSERVATIONS (CENTRAL)

CITY           SKY/WX    TMP DP  RH WIND       PRES   REMARKS
LAKE TEXOMA      N/A     79  70  73 SW10        N/A
CADDO GRASSLND   N/A     79  72  78 S8          N/A
PAT MAYSE LAKE   N/A     79  75  89 S9          N/A
ATHENS           N/A     79  72  78 SW7         N/A
LAKE LIMESTONE   N/A     77  73  88 S7          N/A
MCGREGOR         N/A     73  68  83 S5          N/A
TEMPLE           N/A     75  70  83 S7          N/A
$$

SUPPLEMENTAL OBSERVATIONS (WEST)

CITY           SKY/WX    TMP DP  RH WIND       PRES   REMARKS
LBJ GRASSLAND    N/A     75  68  78 S3          N/A
GRANBURY         N/A     79  68  69 S9          N/A
COMANCHE         N/A     75  66  73 S8          N/A
HAMBY            N/A     77  64  65 S8          N/A
$$

SUPPLEMENTAL OBSERVATIONS (EAST)

CITY           SKY/WX    TMP DP  RH WIND       PRES   REMARKS
TEXARKANA        N/A     77  72  83 S3G12       N/A
LINDEN           N/A     75  72  88 SW1         N/A
CADDO LAKE       N/A     77  75  94 SW2         N/A
GILMER           N/A     79  73  83 SW5         N/A
HENDERSON        N/A     75  72  88 S10         N/A
LUFKIN           N/A     75  72  88 MISG        N/A
N SABINE NF      N/A     75  72  88 MISG        N/A
S SABINE NF      N/A     73  70  88 CALM        N/A
$$

SUPPLEMENTAL OBSERVATIONS ARE A COLLECTION OF AUTOMATED INSTRUMENTS
THAT ARE MAINTAINED BY A VARIETY OF FEDERAL AND STATE AGENCIES.
CERTAIN ELEMENTS...SUCH AS HUMIDITY VALUES AND SUSTAINED WIND
SPEEDS...MAY BE APPROXIMATED.




USA.gov is the U.S. government's official web portal to all federal, state and local government web resources and services.